Plainview, TX

1:09 PM CDT on August 25, 2016 (GMT -0500)
Hale County

Weather History for KPVW - February, 2013

Change the Weather History Date:

Sunday, February 24, 2013

  Actual Average Record
Temperature  
Mean Temperature 50 °F -  
Max Temperature 69 °F 57 °F 87 °F (1918)
Min Temperature 32 °F 30 °F 7 °F (1914)
Degree Days  
Heating Degree Days 14    
Moisture  
Dew Point 24 °F    
Average Humidity 54    
Maximum Humidity 93    
Minimum Humidity 12    
Precipitation  
Precipitation 0.00 in - - ()
Sea Level Pressure  
Sea Level Pressure 29.65 in    
Wind  
Wind Speed 11 mph (WSW)    
Max Wind Speed 33 mph    
Max Gust Speed 44 mph    
Visibility 10 miles    
Events Snow , Thunderstorm    
Averages and records for this station are not official NWS values.
T = Trace of Precipitation, MM = Missing Value Source: NWS Daily Summary

Daily Weather History Graph

Daily Weather History Graph

Search for Another Location

Airport or City:

Trip Planner

Search our weather history database for the weather conditions in past years. The results will help you decide how hot, cold, wet, or windy it might be!

Date:

Astronomy

Feb. 24, 2013 Rise Set
Actual Time 7:21 AM CST 6:39 PM CST
Civil Twilight 6:56 AM CST 7:04 PM CST
Nautical Twilight 6:27 AM CST 7:33 PM CST
Astronomical Twilight 5:58 AM CST 8:02 PM CST
Moon 5:52 PM CST (2/24) 6:18 AM CST (2/24)
Length of Visible Light 12h 08m
Length of Day
11h 17m
Waxing Gibbous, 99% of the Moon is Illuminated
Feb 24
Waxing Gibbous
Feb 25
Full
Mar 4
Last Quarter
Mar 11
New
Mar 19
First Quarter

Hourly Weather History & Observations

Time (CST) Temp. Windchill Dew Point Humidity Pressure Visibility Wind Dir Wind Speed Gust Speed Precip Events Conditions
12:15 AM 35.6 °F 28.0 °F 21.2 °F 56% 29.73 in 10.0 mi South 10.4 mph - N/A   Clear
12:35 AM 35.6 °F 28.6 °F 21.2 °F 56% 29.72 in 10.0 mi South 9.2 mph - N/A   Clear
12:55 AM 35.6 °F 27.5 °F 21.2 °F 56% 29.72 in 10.0 mi South 11.5 mph - N/A   Clear
1:15 AM 35.6 °F 28.0 °F 23.0 °F 60% 29.72 in 10.0 mi South 10.4 mph - N/A   Clear
1:35 AM 35.6 °F 28.6 °F 23.0 °F 60% 29.71 in 10.0 mi South 9.2 mph - N/A   Clear
1:55 AM 35.6 °F 28.6 °F 23.0 °F 60% 29.71 in 10.0 mi South 9.2 mph - N/A   Clear
2:15 AM 35.6 °F 28.0 °F 23.0 °F 60% 29.70 in 10.0 mi South 10.4 mph - N/A   Clear
2:35 AM 35.6 °F 28.0 °F 23.0 °F 60% 29.69 in 10.0 mi South 10.4 mph - N/A   Clear
2:55 AM 35.6 °F 28.0 °F 23.0 °F 60% 29.69 in 10.0 mi SSW 10.4 mph - N/A   Clear
3:15 AM 35.6 °F 27.1 °F 23.0 °F 60% 29.68 in 10.0 mi South 12.7 mph - N/A   Clear
3:35 AM 35.6 °F 28.6 °F 24.8 °F 65% 29.68 in 10.0 mi SSW 9.2 mph - N/A   Clear
3:55 AM 35.6 °F 28.6 °F 23.0 °F 60% 29.68 in 10.0 mi SSW 9.2 mph - N/A   Clear
4:15 AM 35.6 °F 28.0 °F 24.8 °F 65% 29.67 in 10.0 mi SSW 10.4 mph - N/A   Clear
4:35 AM 33.8 °F 25.8 °F 23.0 °F 65% 29.67 in 10.0 mi SSW 10.4 mph - N/A   Clear
4:55 AM 33.8 °F 27.0 °F 24.8 °F 70% 29.68 in 10.0 mi SSW 8.1 mph - N/A   Clear
5:15 AM 33.8 °F 25.8 °F 23.0 °F 65% 29.68 in 10.0 mi SSW 10.4 mph - N/A   Clear
5:35 AM 35.6 °F 28.6 °F 23.0 °F 60% 29.69 in 10.0 mi SW 9.2 mph - N/A   Clear
5:55 AM 35.6 °F 28.6 °F 24.8 °F 65% 29.68 in 10.0 mi WSW 9.2 mph - N/A   Clear
6:15 AM 33.8 °F 27.7 °F 24.8 °F 70% 29.69 in 10.0 mi WSW 6.9 mph - N/A   Clear
6:35 AM 33.8 °F 27.7 °F 26.6 °F 75% 29.69 in 10.0 mi WSW 6.9 mph - N/A   Clear
7:15 AM 32.0 °F 26.4 °F 23.0 °F 69% 29.70 in 10.0 mi West 5.8 mph - N/A   Clear
7:35 AM 32.0 °F - 24.8 °F 75% 29.70 in 10.0 mi Calm Calm - N/A   Clear
7:55 AM 32.0 °F - 26.6 °F 80% 29.70 in 10.0 mi Calm Calm - N/A   Clear
8:15 AM 33.8 °F - 28.4 °F 81% 29.71 in 10.0 mi Calm Calm - N/A   Clear
8:35 AM 35.6 °F 32.8 °F 26.6 °F 70% 29.71 in 10.0 mi WSW 3.5 mph - N/A   Clear
8:55 AM 39.2 °F 35.9 °F 26.6 °F 61% 29.71 in 10.0 mi West 4.6 mph - N/A   Clear
9:15 AM 41.0 °F 38.0 °F 26.6 °F 57% 29.71 in 10.0 mi WNW 4.6 mph - N/A   Clear
9:35 AM 44.6 °F 43.1 °F 28.4 °F 53% 29.71 in 10.0 mi WSW 3.5 mph - N/A   Clear
9:55 AM 50.0 °F - 26.6 °F 40% 29.70 in 10.0 mi West 5.8 mph - N/A   Clear
10:15 AM 50.0 °F - 24.8 °F 37% 29.69 in 10.0 mi WSW 6.9 mph - N/A   Clear
10:35 AM 53.6 °F - 26.6 °F 35% 29.69 in 10.0 mi WSW 6.9 mph - N/A   Clear
10:55 AM 53.6 °F - 23.0 °F 30% 29.69 in 10.0 mi West 8.1 mph - N/A   Clear
11:15 AM 53.6 °F - 23.0 °F 30% 29.69 in 10.0 mi WSW 8.1 mph - N/A   Clear
11:35 AM 55.4 °F - 24.8 °F 31% 29.68 in 10.0 mi WSW 5.8 mph - N/A   Clear
11:55 AM 55.4 °F - 24.8 °F 31% 29.68 in 10.0 mi WNW 5.8 mph - N/A   Clear
12:15 PM 59.0 °F - 26.6 °F 29% 29.68 in 10.0 mi West 6.9 mph - N/A   Clear
12:35 PM 59.0 °F - 24.8 °F 27% 29.66 in 10.0 mi West 3.5 mph - N/A   Clear
12:55 PM 59.0 °F - 23.0 °F 25% 29.64 in 10.0 mi SW 4.6 mph 16.1 mph N/A   Clear
1:15 PM 60.8 °F - 23.0 °F 23% 29.63 in 10.0 mi WSW 5.8 mph - N/A   Clear
1:35 PM 62.6 °F - 23.0 °F 22% 29.61 in 10.0 mi WSW 9.2 mph - N/A   Clear
1:55 PM 60.8 °F - 23.0 °F 23% 29.59 in 10.0 mi SSW 6.9 mph - N/A   Clear
2:15 PM 62.6 °F - 19.4 °F 19% 29.58 in 10.0 mi SW 16.1 mph 19.6 mph N/A   Clear
2:35 PM 64.4 °F - 19.4 °F 18% 29.57 in 10.0 mi SW 11.5 mph 20.7 mph N/A   Clear
2:55 PM 62.6 °F - 19.4 °F 19% 29.56 in 10.0 mi SSW 9.2 mph 24.2 mph N/A   Scattered Clouds
3:15 PM 68.0 °F - 19.4 °F 16% 29.55 in 10.0 mi SSW 11.5 mph 24.2 mph N/A   Scattered Clouds
3:35 PM 69.8 °F - 14.0 °F 12% 29.54 in 10.0 mi SW 20.7 mph 26.5 mph N/A   Scattered Clouds
3:55 PM 68.0 °F - 12.2 °F 12% 29.53 in 10.0 mi WSW 20.7 mph 26.5 mph N/A   Clear
4:15 PM 64.4 °F - 12.2 °F 13% 29.54 in 10.0 mi SW 16.1 mph 21.9 mph N/A   Clear
4:35 PM 62.6 °F - 12.2 °F 14% 29.54 in 10.0 mi SW 13.8 mph 21.9 mph N/A   Scattered Clouds
4:55 PM 62.6 °F - 15.8 °F 16% 29.54 in 10.0 mi SW 10.4 mph - N/A   Mostly Cloudy
5:15 PM 60.8 °F - 19.4 °F 20% 29.55 in 10.0 mi WSW 8.1 mph - N/A   Overcast
5:35 PM 62.6 °F - 15.8 °F 16% 29.55 in 10.0 mi SSW 19.6 mph 25.3 mph N/A   Overcast
5:55 PM 62.6 °F - 14.0 °F 15% 29.57 in 10.0 mi West 6.9 mph 16.1 mph N/A   Mostly Cloudy
6:15 PM 59.0 °F - 17.6 °F 20% 29.57 in 10.0 mi West 13.8 mph 18.4 mph N/A   Mostly Cloudy
6:35 PM 51.8 °F - 32.0 °F 47% 29.59 in 10.0 mi North 29.9 mph 34.5 mph N/A   Mostly Cloudy
6:55 PM 39.2 °F 28.5 °F 32.0 °F 75% 29.61 in 10.0 mi NNE 24.2 mph 34.5 mph N/A   Scattered Clouds
7:15 PM 39.2 °F 28.5 °F 32.0 °F 75% 29.60 in 10.0 mi NNE 24.2 mph 34.5 mph N/A   Scattered Clouds
7:35 PM 35.6 °F 23.7 °F 32.0 °F 87% 29.61 in 10.0 mi North 24.2 mph 33.4 mph N/A   Clear
7:55 PM 35.6 °F 23.4 °F 32.0 °F 87% 29.63 in 10.0 mi North 25.3 mph 35.7 mph N/A   Clear
8:15 PM 35.6 °F 22.5 °F 32.0 °F 87% 29.63 in 10.0 mi North 29.9 mph 35.7 mph N/A   Scattered Clouds
8:35 PM 35.6 °F 22.5 °F 30.2 °F 81% 29.64 in 10.0 mi North 29.9 mph 38.0 mph N/A   Scattered Clouds
8:55 PM 33.8 °F 21.6 °F 30.2 °F 87% 29.64 in 10.0 mi North 23.0 mph 32.2 mph N/A   Mostly Cloudy
9:15 PM 33.8 °F 19.4 °F 30.2 °F 87% 29.64 in 10.0 mi North 33.4 mph 42.6 mph N/A   Overcast
9:35 PM 33.8 °F 20.5 °F 30.2 °F 87% 29.65 in 10.0 mi North 27.6 mph 43.7 mph N/A   Mostly Cloudy
9:55 PM 33.8 °F 20.1 °F 30.2 °F 87% 29.66 in 10.0 mi North 29.9 mph 39.1 mph N/A   Mostly Cloudy
10:15 PM 33.8 °F 20.3 °F 30.2 °F 87% 29.66 in 10.0 mi North 28.8 mph 42.6 mph N/A   Overcast
10:35 PM 33.8 °F 20.5 °F 30.2 °F 87% 29.67 in 10.0 mi North 27.6 mph 40.3 mph N/A   Overcast
10:55 PM 33.8 °F 21.0 °F 30.2 °F 87% 29.67 in 10.0 mi NNE 25.3 mph 40.3 mph N/A   Overcast
11:15 PM 33.8 °F 21.9 °F 30.2 °F 87% 29.71 in 10.0 mi North 21.9 mph 27.6 mph N/A Thunderstorm Overcast
11:35 PM 33.8 °F 20.5 °F 30.2 °F 87% 29.69 in 5.0 mi North 27.6 mph 35.7 mph N/A Snow Light Snow
11:55 PM 32.0 °F 18.6 °F 30.2 °F 93% 29.68 in 5.0 mi NNE 25.3 mph 29.9 mph N/A   Overcast